Showing default

SKYSAT C8, 42990

Orbit data source: Space-Track

SKYSAT C8, 42990 is a payload satellite owned by Terra Bella (US) in SSO that was launched on Tue, 31 Oct 2017 UTC via a MINOTAUR-C 3210 launch vehicle from the Air Force Western Test Range (AFWTR). Payloads include a variety of satellites, spacecraft, and rockets equipped with specific instruments for various scientific and technological missions. These include communications satellites like Starlink; space stations such as the ISS; scientific satellites like the Hubble; Earth observation satellites from companies like Planet Labs, Umbra, and HawkEye 360; GPS; miniature CubeSats for education and research; and military/defense satellites.

Loading next visibility...
SKYSAT C8 details
Identifier
42990, 2017-068D
Orbit
SSO
Last TLE update1 day ago
Origin
Flag of USTerra Bella (US)
ManufacturerMaxar SSL
MissionOperational Commercial Imaging
Bus & MotorSKYSAT-GEN2, Unknown motor
Mass110 kg wet, 110 kg dry
Launch date (UTC)
2017-10-31 (7 years ago)
Launch vehicle
MINOTAUR-C 3210
Launch site
Air Force Western Test Range (AFWTR)
Object type
Payload
Rocket body
Debris
Shape & HBRBox, 1.2 m
Radar Cross Section0.888 m², Medium (>0.1 m² and < 1m²)

Expand to show TLE details & history

TLE from 1 day ago
0 SKYSAT C8
1 42990U 17068D   24360.38211205  .00022520  00000-0  76779-3 0  9993
2 42990  97.3868 124.6886 0001167 168.0264 192.1004 15.30371284399781
Epoch: 2024-12-25T09:10Z
Definitive object data (Epoch: 2024-12-25T09:10:14.481Z)
Latitude-0.00007°
Longitude-107.24839°
Altitude478.591 km
Speed7.626 km/s
True Right ascension08h 18m 45s
True Declination0° 00' 00"
Sunlit
Object was in full shadow at TLE epoch
Visualization TLE readout
Latitude66.45681°
Longitude91.0242°
Altitude485.578 km
Speed7.629 km/s
Apparent Right ascension21h 54m 35s
Apparent Declination16° 04' 59"
Sunlit
Object is in daylight
Visualization observer readout
Local Sidereal Time10:07:20
Azimuth3.692° NNE
Elevation-33.922°
Doppler factor1
Orbital elements
Apogee altitude472.454 km
Perigee altitude470.856 km
Semi-major axis6,849.792 km
Eccentricity0.0001167
Inclination97.3868°
RAAN124.6886°
Arg. of periapsis168.0264°
True anomaly192.0976°
Mean anomaly192.1004°
Eccentric anomaly192.099°
Mean motion3.82849 °/min
BSTAR0.00076779
Orbital period94.03 mins
Loading maneuver chart data...
Loading historical data...
Loading historical data...
Loading historical data...
Loading historical data...
Loading historical data...
Loading historical data...
Loading historical data...

SKYSAT C8 Visibility forecast

Observer location: undefined°, undefined

Span
Click to sort rows by Start time (UTC) header in descending order
Start Az.
Max El. time (UTC)
Max El. Az.
Max El.
End time (UTC)
End Az.
5 mins2024-12-26 21:50:06.129Z342.79° N2024-12-26 21:52:06.129Z279.608° WNW31.733°2024-12-26 21:55:06.129Z217.987° SW
5 mins2024-12-27 08:23:06.129Z152.186° SSE2024-12-27 08:25:06.129Z109.205° ESE39.817°2024-12-27 08:28:06.129Z358.074° N
|